Dewpoint
69 70 71 68 68 65 65 63 62 61 59 60 62 63 64 63 63 62 63 61 59 59 58 59 62 61 60 58 61 60 60 59 59 56 58 59 61 61 62 61 61 60 58 59 60 58 61 61 59 59 59 59 58 58 58 58 58 59 59 59 58 59 59 59 59 59 59 59 59 59 59 59 59 59 60 60 61 61 60 60 60 61 61 61 61
69 70 70 69 69 67 65 64 63 60 60 61 61 61 62 63 63 63 59 61 59 60 59 59 58 60 60 61 61 61 61 59 58 57 58 60 62 61 63 62 63 64 62 60 59 59 59 60 59 58 59 59 58 58 59 59 59 58 59 59 58 59 59 59 60 60 59 59 58 59 59 59 59 59 60 60 60 61 61 60 60 61 61 61 61
69 69 70 69 68 69 67 65 63 62 61 60 62 62 63 63 63 63 61 60 59 59 58 58 58 58 60 59 61 62 61 60 58 60 58 59 60 60 60 62 62 63 63 63 59 59 59 60 58 59 59 59 59 59 59 59 59 59 59 59 60 59 59 60 60 60 60 59 59 59 59 59 59 59 59 59 60 60 60 60 60 61 62 61 61
69 69 68 68 69 70 68 65 63 63 62 60 60 61 63 63 63 64 63 62 61 61 60 58 58 58 58 62 61 61 59 59 60 60 61 61 60 61 60 60 62 62 62 62 60 59 59 59 59 59 59 59 60 60 60 60 60 61 60 60 60 60 60 60 60 60 60 60 60 60 60 60 60 59 59 59 59 60 60 60 60 60 61 61 62
70 71 68 69 69 69 69 67 65 64 64 62 61 62 62 64 65 64 64 64 63 62 59 61 61 60 60 61 61 60 60 60 62 62 61 61 61 60 61 60 60 63 62 61 60 59 59 59 59 59 60 61 59 60 61 60 60 59 60 60 60 60 61 61 60 61 61 61 61 61 60 60 59 59 59 59 59 60 60 60 61 61 60 60 61
69 70 70 69 68 67 68 70 67 66 65 64 61 62 60 63 63 63 63 63 63 63 61 61 60 60 62 61 60 61 61 60 62 63 62 62 62 62 62 61 61 60 59 62 60 60 59 59 59 60 61 60 60 59 60 60 60 59 60 60 61 60 61 61 61 61 61 61 61 61 61 61 60 60 59 59 59 60 60 60 61 61 61 61 61
69 70 69 68 67 68 67 67 68 67 68 65 64 62 62 59 61 62 64 64 62 63 61 62 61 61 62 62 62 62 63 63 63 62 61 63 63 63 63 61 61 60 60 59 62 61 60 59 60 61 61 60 60 60 60 60 60 59 61 62 62 61 62 62 62 62 61 61 61 61 61 61 61 61 60 59 59 59 60 60 60 61 61 61 61
68 68 69 69 68 68 68 68 68 67 66 69 68 65 62 60 62 62 62 63 63 62 63 62 63 62 63 62 63 63 63 63 63 63 62 62 62 63 62 62 61 58 60 59 58 61 63 62 61 62 61 61 60 61 61 60 60 61 62 62 62 62 62 62 62 62 62 62 61 61 61 62 61 60 59 58 59 60 60 60 61 61 62 62 62
68 68 69 69 68 68 67 68 68 68 67 66 67 66 65 61 62 62 62 63 61 61 63 63 63 63 64 64 63 64 64 64 63 63 63 62 62 62 62 62 61 57 60 59 60 61 64 63 62 62 62 62 62 61 61 61 61 62 62 62 62 62 63 63 63 63 63 63 61 62 61 61 61 60 59 59 59 60 60 60 61 62 62 62 62
69 68 68 68 67 68 68 67 68 69 69 68 68 67 68 63 62 63 62 63 61 61 62 63 63 63 63 64 64 62 63 64 64 64 64 62 63 63 64 63 61 57 61 61 60 60 62 63 63 64 64 65 64 63 63 62 62 62 63 63 63 63 63 63 63 64 64 63 62 62 62 61 62 61 60 59 59 60 60 61 61 62 62 62 62
68 68 68 67 67 67 67 68 68 69 66 66 67 66 66 65 65 64 63 63 62 62 62 62 62 63 62 63 64 64 64 64 65 65 67 64 65 66 63 63 62 60 63 62 64 62 62 62 62 63 64 65 64 65 66 65 64 64 64 64 64 63 63 64 64 64 64 64 64 62 62 62 62 62 59 59 59 60 60 62 62 62 62 62 62
68 68 68 68 67 67 66 67 67 67 68 67 66 65 65 65 65 66 65 64 63 62 62 62 62 63 62 63 64 64 65 64 65 65 65 66 67 65 66 62 62 61 62 63 67 66 63 63 64 65 63 64 65 65 64 62 64 64 64 64 64 64 64 64 65 65 64 64 64 64 63 62 62 61 60 59 59 60 61 62 62 61 61 62 63
67 66 67 67 67 68 67 66 67 67 66 67 66 66 67 66 66 67 66 65 63 62 62 62 61 61 63 63 64 64 65 64 64 66 65 64 68 63 63 62 61 61 62 64 62 63 65 64 63 65 65 64 65 65 64 63 64 64 64 64 64 64 64 64 64 64 64 64 64 64 63 63 63 61 60 60 60 61 62 62 61 61 60 61 62
67 66 67 67 67 67 68 67 67 67 68 68 67 68 66 64 66 66 64 67 63 61 61 62 60 58 61 59 62 65 65 64 64 64 64 64 66 63 62 62 62 61 64 62 62 63 62 62 62 66 64 65 64 64 65 64 64 64 64 64 64 64 64 64 64 64 62 62 64 64 64 63 62 61 61 61 61 62 62 61 61 60 60 60 60
66 67 66 67 67 67 68 68 67 67 67 67 67 67 66 66 65 64 63 64 63 62 63 62 59 59 59 60 60 60 61 63 65 64 63 65 65 63 64 63 63 62 62 62 61 62 60 62 61 62 66 65 65 65 64 64 64 64 64 64 64 64 64 64 64 62 62 62 63 64 64 64 63 62 61 62 62 62 61 61 61 61 61 60 60
66 65 67 66 67 66 68 68 67 66 68 66 66 67 66 66 65 64 65 63 60 60 63 63 59 59 58 57 58 58 56 58 60 62 64 64 63 63 64 62 64 63 62 61 61 61 61 60 62 62 62 65 66 67 65 65 65 65 65 64 64 64 64 64 63 62 61 61 62 63 64 64 63 62 62 62 62 61 60 60 60 60 59 59 59
67 66 65 66 66 67 68 68 67 69 66 67 66 66 66 67 65 65 63 64 61 61 62 63 62 65 60 58 58 56 56 58 60 61 63 63 63 62 62 64 63 63 62 61 61 61 60 60 62 62 63 64 65 66 66 64 64 65 64 64 64 64 63 63 61 61 61 60 62 63 64 64 63 62 63 62 61 61 60 60 60 59 58 58 59
66 65 65 66 67 67 67 67 66 66 68 68 67 67 66 67 66 65 63 64 64 60 62 65 65 66 65 63 63 57 56 61 58 56 61 63 63 62 63 64 64 64 63 61 59 59 59 61 62 63 63 63 66 67 64 64 65 65 65 63 64 64 64 62 61 61 62 61 61 62 64 64 63 63 63 62 61 60 59 59 59 58 58 58 58
66 65 65 66 67 67 66 67 67 66 66 67 67 66 67 66 67 66 65 64 65 61 61 63 64 65 65 65 65 64 62 59 57 60 58 60 63 62 61 63 63 61 61 59 58 59 60 61 61 62 61 63 66 67 65 65 63 63 64 64 63 61 61 61 61 61 61 62 61 61 65 65 64 63 62 62 61 60 59 58 58 57 57 57 57
65 64 65 65 67 68 67 68 67 67 65 65 66 67 67 67 66 66 66 64 65 63 63 63 63 61 64 65 65 64 62 61 61 56 56 55 57 60 62 63 62 63 64 61 59 61 61 62 59 59 62 61 65 66 65 64 66 64 63 61 60 60 60 61 60 60 61 60 61 61 64 64 63 63 62 61 60 59 59 58 57 57 57 57 57
65 64 64 64 65 67 66 65 66 67 65 65 66 67 66 66 66 67 66 66 65 65 64 64 62 61 63 63 62 60 61 61 60 61 61 56 58 59 59 61 62 62 63 63 63 61 62 62 59 58 61 60 61 65 64 64 63 62 62 59 60 60 60 58 56 56 57 61 60 61 64 63 63 62 61 60 59 59 58 57 57 57 57 57 57
67 67 66 64 64 64 66 67 67 66 66 66 65 66 66 66 66 65 66 65 66 66 65 65 63 63 63 63 62 60 62 60 61 59 60 58 55 54 59 59 59 60 63 63 65 59 60 62 61 58 60 59 61 66 65 63 63 61 60 59 59 59 60 59 55 57 57 58 62 60 62 63 63 62 61 60 59 58 57 57 57 57 56 57 56
66 67 65 64 64 64 66 67 66 65 65 65 66 67 66 67 66 66 65 65 66 66 66 65 64 63 65 63 60 60 60 58 59 59 59 58 58 57 57 55 57 58 62 62 62 59 59 61 60 59 60 59 61 62 62 63 62 59 59 58 59 59 59 57 55 56 57 59 61 61 61 60 60 60 58 57 57 58 56 56 56 57 56 56 56
65 66 66 65 65 64 65 66 65 66 65 65 66 68 67 66 66 65 66 66 65 65 65 65 66 64 65 63 63 64 62 61 60 59 59 58 56 56 56 56 57 57 59 64 62 59 58 58 58 59 59 58 58 60 62 60 60 59 59 58 58 58 59 58 56 56 55 57 59 61 58 58 57 57 57 57 58 57 56 56 57 56 56 56 56
64 65 65 65 65 65 65 65 65 65 66 67 67 67 67 65 65 65 65 64 65 65 65 66 66 64 64 65 65 63 62 63 63 63 61 59 58 55 53 57 58 56 57 58 60 57 56 58 57 58 57 58 57 58 58 58 58 59 59 58 58 57 58 60 59 57 55 55 57 59 60 58 58 58 58 58 57 56 57 59 58 56 57 57 55
64 64 65 65 65 65 65 65 65 65 65 66 66 66 66 65 65 65 65 65 65 64 65 65 66 65 65 64 64 63 65 65 63 63 59 59 58 55 55 54 54 56 57 58 59 57 56 56 57 56 57 58 57 58 59 59 59 59 58 58 58 56 57 59 60 58 56 55 55 57 58 60 59 58 57 56 57 58 57 53 54 54 53 53 55
64 64 64 65 65 66 65 65 65 65 65 66 66 65 65 64 65 65 66 65 65 66 66 65 64 65 65 65 65 64 64 65 62 61 59 59 57 56 56 55 54 56 56 57 56 55 54 55 56 56 57 59 59 59 57 58 57 58 57 59 60 55 56 58 60 59 56 55 54 55 56 57 57 57 57 57 54 53 55 56 54 53 53 54 56
65 65 65 65 65 65 65 65 64 65 65 65 64 64 64 66 66 66 64 64 64 64 65 64 65 65 65 64 64 64 64 63 63 65 63 59 58 58 57 55 56 52 54 53 54 52 54 54 54 56 56 58 58 59 57 56 56 57 58 56 58 58 55 56 58 59 57 56 55 54 54 54 54 54 54 54 55 55 56 57 54 53 53 55 56
64 63 66 64 64 65 65 65 64 65 65 65 65 65 65 65 66 66 64 64 65 64 64 64 65 64 64 64 64 64 65 65 63 62 62 61 60 59 58 55 55 54 53 53 54 53 54 54 53 55 58 59 59 59 56 55 56 58 53 55 56 58 55 55 56 56 56 56 55 54 53 54 54 54 55 56 57 57 56 54 54 53 53 56 56
64 64 64 63 64 64 64 64 65 65 65 65 65 65 66 66 65 65 65 66 64 64 64 64 64 65 63 63 65 65 64 63 63 65 63 63 61 59 60 59 56 56 54 52 54 55 57 55 55 54 56 58 59 58 56 55 56 52 44 54 56 56 54 54 54 53 53 54 53 52 52 53 54 56 57 56 56 56 54 53 53 53 54 56 55
63 64 64 63 63 64 65 64 64 64 64 64 65 65 65 64 65 65 64 65 64 65 65 65 64 63 62 64 65 66 65 64 64 66 64 62 62 63 62 59 59 60 58 57 57 57 55 56 55 56 56 56 57 57 55 54 53 48 45 52 55 56 55 55 54 53 53 53 51 51 53 53 53 54 56 57 57 56 55 55 54 54 55 54 55
64 64 62 63 65 64 65 64 64 63 63 64 65 64 64 64 64 63 64 62 62 63 64 64 64 64 63 63 63 62 65 64 63 62 62 62 63 62 61 61 59 60 59 61 57 57 58 58 56 56 57 57 57 55 56 51 51 50 44 48 57 56 56 57 53 53 53 52 51 53 56 56 54 55 56 56 56 57 56 55 56 55 55 54 53
63 63 63 62 61 62 64 62 62 62 63 64 64 65 64 64 65 63 63 63 63 62 63 64 63 63 63 62 61 63 64 63 62 62 62 61 62 63 63 62 61 61 60 59 59 55 58 61 60 56 58 57 56 55 54 53 50 47 46 53 58 56 52 54 56 52 52 52 51 51 52 52 51 56 55 54 55 55 54 53 53 53 53 52 51
63 62 62 62 63 63 62 62 61 61 62 62 63 63 64 64 62 64 63 64 62 62 64 63 63 63 63 62 61 63 63 63 62 62 61 62 60 59 59 60 58 60 62 56 56 58 56 60 58 55 57 56 54 54 56 54 52 46 42 52 52 49 44 49 51 56 52 52 50 50 51 51 50 52 52 51 52 51 52 50 50 50 51 49 48
61 63 62 62 63 62 63 63 63 63 64 63 63 63 63 62 63 62 64 62 64 63 63 62 61 62 62 62 62 62 63 63 62 62 61 62 60 57 58 60 61 61 57 58 58 56 56 57 59 55 55 55 57 56 56 54 54 47 40 48 48 44 40 45 50 50 51 51 50 50 50 50 50 50 50 50 50 49 50 50 49 48 48 48 47
59 61 62 61 61 62 62 61 62 63 61 64 64 64 63 63 62 62 62 63 62 61 62 62 62 61 61 62 62 62 62 61 62 65 62 64 63 62 60 61 61 59 59 60 58 58 58 53 55 53 54 57 56 58 54 53 53 49 42 44 47 41 36 38 46 50 52 51 50 50 50 50 49 49 48 48 48 48 48 48 48 48 47 47 47
58 59 60 61 62 61 63 62 61 62 62 62 62 63 65 64 63 63 62 61 62 62 63 63 63 62 61 61 62 62 62 63 62 62 62 63 60 60 61 60 61 61 61 59 59 58 58 56 56 55 55 54 54 57 54 52 52 47 43 40 45 41 37 38 37 47 51 51 50 50 49 49 48 48 47 47 47 47 46 46 47 47 47 47 47
56 58 59 60 62 62 61 61 61 61 62 62 62 62 62 62 62 62 62 63 62 62 62 62 62 62 62 61 62 62 61 62 62 62 60 61 60 60 59 60 59 58 60 59 58 58 56 55 56 54 54 57 55 56 54 52 49 46 42 41 43 41 38 39 37 45 48 52 54 52 50 48 48 47 47 47 46 45 45 45 45 46 46 46 46
53 55 56 58 59 62 62 62 62 62 62 61 62 63 62 62 62 61 62 63 63 61 62 62 63 62 62 62 62 62 61 62 62 61 61 63 61 61 61 61 58 58 60 59 57 57 56 57 56 56 53 54 57 54 55 49 48 46 45 44 45 39 41 40 39 44 45 47 48 47 49 49 48 49 47 46 45 46 45 45 45 45 45 45 44
51 52 53 54 56 59 61 63 63 62 61 61 61 61 62 62 63 63 62 63 63 63 64 63 63 63 62 63 63 63 62 63 63 63 63 62 62 62 61 62 62 61 59 59 61 58 57 58 56 56 51 55 57 56 49 45 46 44 42 44 45 44 43 45 43 42 46 47 46 44 45 46 44 47 46 46 46 45 45 45 45 45 45 44 43
50 50 51 52 53 54 56 62 62 62 61 61 62 63 63 63 63 62 62 62 62 62 61 62 61 62 62 62 62 63 63 64 60 61 61 60 64 62 63 62 62 61 61 60 61 61 57 56 60 56 51 51 53 53 48 45 44 44 46 46 45 45 43 44 43 41 40 45 45 42 40 44 36 41 41 41 43 46 45 44 44 45 44 42 42
48 49 49 50 50 51 52 55 60 62 61 62 60 55 54 62 63 62 63 63 62 63 63 62 62 62 61 62 63 61 59 58 55 52 51 53 55 60 63 62 61 61 60 60 59 59 59 58 58 58 57 50 48 51 49 48 47 49 48 48 47 45 45 45 45 44 41 42 43 43 40 41 39 35 37 36 36 47 43 44 42 41 43 42 42
47 47 48 48 48 49 50 51 53 57 60 61 54 50 49 49 59 63 62 62 62 62 62 60 62 62 61 61 63 62 59 58 57 50 49 48 48 51 52 57 60 62 61 61 60 61 58 59 59 60 60 55 51 50 49 48 49 49 48 49 48 48 45 43 42 45 43 44 44 43 41 45 43 37 36 37 39 46 42 49 42 44 44 44 43
46 47 47 46 47 47 48 48 50 53 57 53 45 45 47 47 49 59 63 63 60 61 62 61 61 62 62 62 62 63 62 61 61 58 53 48 46 46 46 47 48 47 45 60 62 60 60 58 58 57 57 59 59 54 50 51 50 50 51 50 50 47 47 44 41 42 43 47 43 43 43 44 45 43 44 41 52 51 46 45 43 44 44 44 44
46 45 45 45 46 46 46 46 47 49 54 43 40 40 40 41 43 50 61 63 62 63 62 61 62 62 62 62 62 62 61 60 61 61 60 56 47 45 44 44 42 43 46 46 47 64 61 59 58 58 58 58 58 57 58 62 57 54 53 49 50 49 47 44 42 40 47 49 45 42 41 43 45 44 45 50 52 50 47 44 44 44 44 44 44
44 44 45 44 44 44 44 44 45 46 50 44 40 39 39 39 40 43 57 61 63 62 62 61 61 62 62 62 62 61 62 62 63 62 62 61 59 58 58 60 59 49 43 43 44 46 56 61 60 58 59 59 59 60 61 60 55 53 52 50 52 49 49 48 52 53 51 47 47 46 43 43 47 48 46 56 54 51 49 45 43 44 44 44 43
43 43 43 43 43 43 43 43 43 44 46 42 40 39 38 39 39 41 54 60 62 61 61 61 61 62 61 62 62 62 61 62 62 62 62 61 61 62 61 61 61 60 60 59 59 59 59 61 61 61 61 60 59 64 62 62 58 55 54 55 55 54 55 55 54 54 53 50 51 53 48 45 54 50 52 56 53 50 47 43 43 43 44 43 43
43 43 43 42 42 42 42 42 43 42 43 41 40 39 38 38 38 47 53 58 60 61 60 60 62 61 61 62 61 62 59 62 55 52 56 63 61 61 61 60 56 54 49 42 40 41 56 63 61 61 55 52 50 61 61 61 57 57 55 55 56 56 55 54 51 54 54 55 55 52 50 57 58 56 59 58 51 50 48 47 43 44 43 43 43
42 42 42 42 42 41 41 42 42 41 42 41 39 38 38 38 40 48 52 57 60 61 62 62 62 62 58 60 59 61 62 62 52 47 49 51 60 59 58 58 56 54 52 49 41 40 40 41 40 40 40 40 40 40 41 41 52 53 53 52 52 51 52 50 50 51 51 53 53 53 53 53 58 58 59 60 57 51 48 46 47 43 43 43 43
41 41 42 41 41 42 41 41 41 41 41 41 39 38 37 38 39 47 53 57 59 60 60 59 58 53 50 47 55 60 60 59 45 48 48 53 57 59 57 55 54 52 51 51 50 46 40 40 40 39 40 41 42 42 41 42 43 50 54 53 52 51 51 50 47 55 53 54 51 52 52 50 55 56 56 53 49 50 50 48 47 46 42 42 42
42 41 41 41 41 41 42 41 42 41 40 40 39 37 37 38 41 49 54 58 59 58 56 56 55 54 51 46 43 48 56 47 41 43 41 49 54 56 55 55 53 51 50 51 50 50 50 50 50 51 50 49 53 49 49 43 44 49 54 54 53 51 48 47 51 53 51 51 49 52 50 47 53 52 53 47 40 40 44 49 48 47 46 45 45